Regional Weather Roundup
Issued by NWS

Home | Current Version | Previous Version | Text Only | Print | Product List | Glossary On
Versions: 1 2 3 4 5 6 7 8 9 10 11 12 13 14 15 16 17 18 19 20 21 22 23 24 25 26 27 28 29 30 31 32 33 34 35 36 37 38 39 40 41 42 43 44 45 46 47 48 49 50
137
ASUS44 KLIX 311505
RWRLA
LOUISIANA WEATHER ROUNDUP
NATIONAL WEATHER SERVICE NEW ORLEANS LA
900 AM CST SAT JAN 31 2015

NOTE: "FAIR" INDICATES FEW OR NO CLOUDS BELOW 12,000 FEET WITH NO
      SIGNIFICANT WEATHER AND/OR OBSTRUCTIONS TO VISIBILITY.
      SKY/WX - SKY CONDITION AND SIGNIFICANT WEATHER.
      TMP - AIR TEMPERATURE.    DP   - DEWPOINT TEMPERATURE.
      RH  - RELATIVE HUMIDITY.  PRES - PRESSURE.
      HX  - HEAT INDEX.         WCI  - WIND CHILL INDEX.

*  THESE STATIONS ARE NOT NWS OR FAA STATIONS AND ARE NOT UNDER
   NWS QUALITY CONTROL.

LAZ040-048-061>063-065-066-069-311600-
SOUTHEAST LOUISIANA

CITY           SKY/WX    TMP DP  RH WIND       PRES   REMARKS
N.O. AUDUBON   NOT AVBL
N.O. INTL ARPT MOSUNNY   51  40  65 NE12      30.31R
N.O. LAKEFRONT SUNNY     51  40  65 E12       30.32S
N.O. DOWNTOWN* NOT AVBL
SLIDELL        SUNNY     45  31  58 E9        30.33S
BATON ROUGE    SUNNY     46  30  53 E14       30.31S
BOOTHVILLE     SUNNY     56  48  74 NE8       30.30R
BELLE CHASSE   MOSUNNY   55  41  59 E10       30.30R
BOGALUSA*        N/A     44  31  60 E3        30.36R
GALLIANO*      SUNNY     57  46  65 MISG      30.30R
NEW ROADS*     FAIR      47  29  49 E9        30.31S
GONZALES*      FAIR      48  37  64 E7        30.31S
HAMMOND*       SUNNY     46  28  49 E5        30.35S
HOUMA*         SUNNY     50  43  76 NE10      30.30R
PORT FOURCHON* SUNNY     59  50  72 E13G20    30.31R

$$

LAZ041-044-053-054-311600-
SOUTHWEST LOUISIANA

CITY           SKY/WX    TMP DP  RH WIND       PRES   REMARKS
LAKE CHARLES   PTSUNNY   45  37  73 E9        30.26S
LAFAYETTE      MOSUNNY   49  36  61 E10G16    30.29R
PATTERSON      SUNNY     50  37  62 E15       30.30S
SALT POINT       N/A     52  41  66 VRB7      30.27R
NEW IBERIA     SUNNY     51  38  60 E9        30.29R
CHENAULT AIRPK SUNNY     45  37  76 E9        30.27S

$$

LAZ027-028-311600-
CENTRAL LOUISIANA

CITY           SKY/WX    TMP DP  RH WIND       PRES   REMARKS
FORT POLK      CLOUDY    47  31  53 SE9       30.26F
ALEXANDRIA INT PTSUNNY   45  32  60 E12       30.29S
ALEXANDRIA     PTSUNNY   45  32  60 E8        30.31R

$$

LAZ001-002-311600-
NORTHWEST LOUISIANA

CITY           SKY/WX    TMP DP  RH WIND       PRES   REMARKS
SHREVEPORT     CLOUDY    46  32  58 E10       30.29R
BARKSDALE AFB  CLOUDY    44  30  58 E7        30.29S
DTN SHREVEPORT CLOUDY    44  30  57 E9        30.30R

$$

LAZ014-016-311600-
NORTHEAST LOUISIANA

CITY           SKY/WX    TMP DP  RH WIND       PRES   REMARKS
MONROE         CLOUDY    43  31  62 E6        30.35R
TALLULAH       CLOUDY    43  29  57 E12       30.34S

$$




USA.gov is the U.S. government's official web portal to all federal, state and local government web resources and services.